Location: Newark
(41.7772°N, 74.7403°W)
Time: 13:35:21
(UTC+00:00)

Transit 4A - Pass Details

Date: 28 May 2020
Orbit: 866 x 978 km, 66.8° (Epoch: 06 July)

Event Time Altitude Azimuth Distance (km) Brightness Sun altitude
Exits shadow 06:53:58 39° 185° (S) 1,273 8.2 -21.1°
Maximum altitude 06:56:05 68° 116° (ESE) 937 7.9 -20.9°
Drops below altitude 10° 07:01:55 10° 35° (NE) 2,552 11.4 -20.3°
Sets 07:04:27 0° 33° (NNE) 3,508 12.6 -20.1°
